Los Alamitos, CA

3:25 PM PDT on September 23, 2017 (GMT -0700)
Los Alamitos Army Air Field

Weather History for KSLI - March, 2014

Change the Weather History Date:

Tuesday, March 11, 2014

  Actual Average Record
Temperature  
Mean Temperature 62 °F -  
Max Temperature 72 °F 67 °F 93 °F (2007)
Min Temperature 51 °F 53 °F 41 °F (2013)
Degree Days  
Heating Degree Days 4    
Growing Degree Days 12 (Base 50)    
Moisture  
Dew Point 50 °F    
Average Humidity 72    
Maximum Humidity 100    
Minimum Humidity 32    
Precipitation  
Precipitation 0.00 in - - ()
Sea Level Pressure  
Sea Level Pressure 29.98 in    
Wind  
Wind Speed 3 mph (SSE)    
Max Wind Speed 12 mph    
Max Gust Speed -    
Visibility 10 miles    
Events      
Averages and records for this station are not official NWS values.
T = Trace of Precipitation, MM = Missing Value Source: NWS Daily Summary

Daily Weather History Graph

Daily Weather History Graph

Search for Another Location

Airport or City:

Trip Planner

Search our weather history database for the weather conditions in past years. The results will help you decide how hot, cold, wet, or windy it might be!

Date:

Astronomy

Mar. 11, 2014 Rise Set
Actual Time 7:07 AM PDT 6:56 PM PDT
Civil Twilight 6:42 AM PDT 7:21 PM PDT
Nautical Twilight 6:14 AM PDT 7:50 PM PDT
Astronomical Twilight 5:45 AM PDT 8:19 PM PDT
Moon 2:47 PM PDT (3/11) 3:54 AM PDT (3/11)
Length of Visible Light 12h 38m
Length of Day
11h 49m
Waxing Gibbous, 79% of the Moon is Illuminated
Mar 11
Waxing Gibbous
Mar 16
Full
Mar 23
Last Quarter
Mar 30
New
Apr 7
First Quarter

Hourly Weather History & Observations

Time (PDT) Temp. Dew Point Humidity Pressure Visibility Wind Dir Wind Speed Gust Speed Precip Events Conditions
12:58 AM 56.7 °F 56.7 °F 100% 30.01 in 10.0 mi ENE 2.3 mph - N/A   Clear
1:58 AM 55.8 °F 55.8 °F 100% 30.00 in 10.0 mi East 3.5 mph - N/A   Clear
2:58 AM 54.9 °F 54.9 °F 100% 29.99 in 10.0 mi Calm Calm - N/A   Clear
3:58 AM 53.8 °F 53.8 °F 100% 29.97 in 10.0 mi Calm Calm - N/A   Clear
4:58 AM 51.8 °F 51.8 °F 100% 29.97 in 10.0 mi NE 4.6 mph - N/A   Clear
5:58 AM 52.7 °F 48.0 °F 84% 29.97 in 10.0 mi NNE 2.3 mph - N/A   Clear
6:58 AM 51.4 °F 46.4 °F 83% 29.98 in 10.0 mi NNE 3.5 mph - N/A   Scattered Clouds
7:58 AM 51.3 °F 47.5 °F 87% 30.00 in 10.0 mi NE 1.2 mph - N/A   Mostly Cloudy
8:58 AM 57.4 °F 47.1 °F 69% 30.01 in 10.0 mi NNE 1.2 mph - N/A   Mostly Cloudy
9:58 AM 61.0 °F 49.6 °F 66% 30.01 in 10.0 mi Calm Calm - N/A   Mostly Cloudy
10:58 AM 65.7 °F 43.3 °F 44% 30.02 in 10.0 mi Variable 1.2 mph - N/A   Overcast
11:58 AM 67.8 °F 47.5 °F 48% 30.01 in 10.0 mi South 4.6 mph - N/A   Overcast
12:58 PM 70.3 °F 46.9 °F 43% 29.99 in 10.0 mi SSW 6.9 mph - N/A   Mostly Cloudy
1:58 PM 69.8 °F 43.0 °F 38% 29.97 in 10.0 mi South 6.9 mph - N/A   Mostly Cloudy
2:58 PM 71.2 °F 39.9 °F 32% 29.95 in 10.0 mi South 8.1 mph - N/A   Mostly Cloudy
3:58 PM 72.3 °F 44.6 °F 37% 29.93 in 10.0 mi South 6.9 mph - N/A   Mostly Cloudy
4:58 PM 70.9 °F 39.9 °F 32% 29.92 in 10.0 mi SSW 6.9 mph - N/A   Mostly Cloudy
5:58 PM 68.5 °F 41.4 °F 37% 29.93 in 10.0 mi SSW 10.4 mph - N/A   Mostly Cloudy
6:58 PM 63.5 °F 50.4 °F 62% 29.93 in 10.0 mi SSW 11.5 mph - N/A   Scattered Clouds
7:58 PM 60.8 °F 55.4 °F 82% 29.95 in 10.0 mi South 5.8 mph - N/A   Scattered Clouds
8:38 PM 60.8 °F 57.2 °F 88% 29.96 in 10.0 mi South 4.6 mph - N/A   Scattered Clouds
8:58 PM 60.1 °F 55.4 °F 85% 29.97 in 10.0 mi South 3.5 mph - N/A   Scattered Clouds
9:58 PM 59.5 °F 55.4 °F 86% 29.99 in 10.0 mi Calm Calm - N/A   Scattered Clouds
10:58 PM 58.6 °F 58.6 °F 100% 30.00 in 10.0 mi South 2.3 mph - N/A   Clear
11:58 PM 56.3 °F 56.3 °F 100% 30.00 in 10.0 mi Calm Calm - N/A   Clear